Regional Weather Roundup
Issued by NWS

Home | Current Version | Previous Version | Text Only | Print | Product List | Glossary Off
Versions: 1 2 3 4 5 6 7 8 9 10 11 12 13 14 15 16 17 18 19 20 21 22 23 24 25 26 27 28 29 30 31 32 33 34 35 36 37 38 39 40 41 42 43 44 45 46 47 48 49 50

000
ASUS43 KMKX 030921
RWRWI

WISCONSIN REGIONAL WEATHER ROUNDUP
NATIONAL WEATHER SERVICE MILWAUKEE/SULLIVAN WI
400 AM CDT THU SEP 03 2015

NOTE: "FAIR" INDICATES FEW OR NO CLOUDS BELOW 12,000 FEET WITH NO
SIGNIFICANT WEATHER AND/OR OBSTRUCTIONS TO VISIBILITY.

WIZ001-002-006>008-014>016-023>028-031000-
NORTHWEST WISCONSIN

CITY           SKY/WX    TMP DP  RH WIND       PRES   REMARKS
SUPERIOR ARPT  FOG       59  59 100 E3        29.97S VSB 1/4
ASHLAND        FOG       62  62 100 CALM      29.97S VSB 1/4
HAYWARD        FOG       61  60  97 CALM      29.96S VSB 3/4
SIREN          CLEAR     64  63  97 E5        29.94S
CUMBERLAND     FOG       61  61 100 CALM      29.94S VSB 1/2
RICE LAKE      CLOUDY    64  63  96 CALM      29.95S FOG
CHETEK         CLOUDY   N/A N/A N/A CALM      29.94S
LADYSMITH      FOG       62  61  96 NE3       29.97S VSB 1/2
EAU CLAIRE     CLOUDY    69  67  93 NE5       29.92R
MENOMONIE      CLOUDY    68  67  99 CALM      29.92S FOG
NEW RICHMOND   CLEAR     65  65 100 E3        29.92S FOG
OSCEOLA        PTCLDY    66  66 100 E3        29.94S
$$

WIZ003>005-009-010-017-018-031000-
NORTH CENTRAL WISCONSIN

CITY           SKY/WX    TMP DP  RH WIND       PRES   REMARKS
MANITOWISH WTR FOG       62  62 100 CALM      29.97F VSB 1/2
ARBOR VITAE    MOCLDY    64  63  94 CALM      29.96F
WOODRUFF       MOCLDY    64  63  94 CALM      29.96F
RHINELANDER    CLOUDY    65  63  93 NE5       29.97S
EAGLE RIVER    CLOUDY    63  63 100 NE5       29.96S FOG
LAND O LAKES   FOG       63  62  99 CALM      29.98S VSB 3/4
PHILLIPS       CLOUDY    63  63 100 NE3       29.96S
TOMAHAWK       CLOUDY    64  63  96 CALM      29.96S
MEDFORD        CLOUDY    65  65 100 NE3       29.95S FOG
MERRILL        CLOUDY    65  65 100 NE6       29.95S
$$

WIZ029-030-035-036-043>047-031000-
CENTRAL WISCONSIN

CITY           SKY/WX    TMP DP  RH WIND       PRES   REMARKS
WAUSAU         MOCLDY    68  66  93 NW3       29.92S
MOSINEE        CLOUDY    64  64 100 NW3       29.94S FOG
MARSHFIELD     MOCLDY    68  65  90 CALM      29.93F FOG
STEVENS POINT  CLOUDY    67  66  98 CALM      29.93S
WAUPACA        CLOUDY    71  70  98 SW6       29.90F FOG
WAUTOMA        PTCLDY    70  70 100 CALM      29.91F
WISC RAPIDS    CLOUDY    71  67  87 CALM      29.93F
CAMP DOUGLAS   CLEAR     69  69 100 N3        29.92R
$$

WIZ011>013-019>022-031-037>040-048>050-031000-
NORTHEAST WISCONSIN

CITY           SKY/WX    TMP DP  RH WIND       PRES   REMARKS
ANTIGO         CLOUDY    64  64  99 N6        29.95R
SHAWANO        NOT AVBL
OCONTO         CLOUDY    66  66 100 CALM      29.89S
STURGEON BAY   CLOUDY    66  63  88 CALM      29.90S
GREEN BAY      CLOUDY    70  69  97 CALM      29.89R FOG
MANITOWOC      TSTM      69  66  90 MISG      29.88F
APPLETON       TSTM      68  68 100 S9        29.88F
CLINTONVILLE   CLOUDY    68  66  94 CALM      29.91R
OSHKOSH        MOCLDY    73  69  87 CALM      29.90S
$$

WIZ032>034-041-042-053>061-031000-
SOUTHWEST WISCONSIN

CITY           SKY/WX    TMP DP  RH WIND       PRES   REMARKS
LA CROSSE      CLEAR     73  69  87 SE6       29.90R
SPARTA         CLEAR     65  63  95 CALM      29.92S FOG
VIROQUA          N/A     69  69 100 SW3       29.94R
BOSCOBEL       CLEAR     70  68  93 CALM      29.92R FOG
PRAIRIE DU CHI MOCLDY    73  68  86 CALM      29.91S
PLATTEVILLE    CLOUDY    72  70  93 S3        29.95R
$$

WIZ056-057-062-063-064-067-068-031000-
SOUTH CENTRAL WISCONSIN

CITY           SKY/WX    TMP DP  RH WIND       PRES   REMARKS
REEDSBURG      CLEAR     73  69  87 W8        29.92S
BARABOO/DELLS  CLEAR     73  66  80 W5        29.92S
LONE ROCK      CLEAR     69  66  90 CALM      29.92S
MINERAL POINT  PTCLDY    72  70  94 S3        29.95R
MADISON        CLEAR     72  68  87 SW5       29.92S
MIDDLETON      CLEAR     73  68  82 W3        29.93S
WATERTOWN      CLEAR     70  70 100 CALM      29.92R
MONROE         CLEAR     70  68  94 SW9       29.95S
JANESVILLE     CLEAR     72  70  94 CALM      29.93S
$$

WIZ051-052-058>065-066-070>072-031000-
SOUTHEAST WISCONSIN

CITY           SKY/WX    TMP DP  RH WIND       PRES   REMARKS
MILWAUKEE      PTCLDY    73  69  87 SW9       29.92F
WAUKESHA       CLEAR     70  66  88 CALM      29.95R
MILWAUKEE/TIMM CLEAR     72  64  78 SW7       29.93R
RACINE         PTCLDY    73  68  84 SW7       29.94F
BURLINGTON     CLEAR     68  67  94 SW3       29.94S
KENOSHA        CLEAR     72  68  87 SW5       29.94S
FOND DU LAC    MOCLDY    73  69  87 NW6       29.92R
SHEBOYGAN      HVY RAIN  69  66  90 VRB3      29.92R FOG
WEST BEND      PTCLDY    73  66  78 SW5       29.92R
JUNEAU         MOCLDY    69  68  95 S6        29.92F FOG
$$

LSZ147-162-031000-
LAKE SUPERIOR

STATION/POSITION TIME  TEMP    WIND        PRES    WAVE
                       AIR SEA DIR/SP/G            HT/PER
                 (UTC) (F)     (DEG/KT/KT) (MB)    (FT/S)
W MID LAKE BUOY  0850   57 56   20/  6/  8 1014.8F   0
DEVILS ISLAND    0900   57      50/  9/  9 1014.9F
PORT WING        0800   59      40/  5/  6 1014.9S
SAXON HARBOR     0840   58        CALM     1014.2S
$$

LMZ867-665-643>646-031000-
LAKE MICHIGAN

STATION/POSITION TIME  TEMP    WIND        PRES    WAVE
                       AIR SEA DIR/SP/G            HT/PER
                 (UTC) (F)     (DEG/KT/KT) (MB)    (FT/S)
CHAMBERS ISLAND  0800   67      70/  7/ 11 1012.2F
S GREEN BAY BUOY 0900   66 66   20/  2/  2 1013.3R
N MID LAKE BUOY  0850   67 66   90/ 17/ 21 1011.9F   2/ 4
NORTHPORT PIER   0800   66      90/ 15/ 21 1012.5F
SISTER BAY       0841   66     130/ 10/ 14   N/A
ALGOMA LAKESHORE 0814           70/  7/  7   N/A
KEWAUNEE LAKESHO 0900   55     130/  1/  5 1011.0S
SHEBOYGAN LAKESH 0900   73     330/ 15/ 19 1013.3R
PORT WASHINGTON  0800   63      CALM  /  5 1013.2F
ATWATER BUOY     0900   59     170/  6/  8 1014.6R
MILWAUKEE LAKESH 0910   74     220/  8/  9   N/A
S MID LAKE BUOY  0850   74 71  200/ 10/ 10 1012.9F   0
KENOSHA   LAKESH 0900   76     240/  8/ 11 1013.2F
$$

TC  - TEMPERATURE IN CELSIUS
VSB - VISIBILITY IN STATUTE MILES
WCI - WIND CHILL INDEX
HX  - HEAT INDEX




USA.gov is the U.S. government's official web portal to all federal, state and local government web resources and services.